Terug naar catalogus

COSMOS 1816

ActiefNavigatiePO
NORAD 17359·PAYLOAD·🇷🇺 Russia

Gelanceerd Jan 29, 1987 vanaf Plesetsk Cosmodrome

Loading…

Volgende Passages (komende 24 uur)

TLE

VersSource: Space-Track

Epoch: Sep 14, 2026, 15:24 UTC

1 17359U 87009A   26257.64167348  .00000077  00000-0  65511-4 0  9996
2 17359  82.9255 318.0473 0031540 321.9913 191.8987 13.74646533987442

Volg COSMOS 1816 in realtime met AllMySat

Download on the App Store